Location: Newark
(48.1236°N, 0.7169°W)
Time: 18:08:36
(UTC+00:00)

Envisat - Visible Passes

Search period start: 19 November 2019 00:00
Search period end: 29 November 2019 00:00
Orbit: 764 x 766 km, 98.1° (Epoch: 19 November)

Date Brightness Start Highest point End Pass type
(mag) Time Alt. Az. Time Alt. Az. Time Alt. Az.
19 Nov 5.5 06:01:13 10° NE 06:05:21 25° E 06:09:29 10° SSE visible
19 Nov 3.3 17:19:00 10° SE 17:23:49 46° ENE 17:28:40 10° N visible
19 Nov 5.1 18:58:47 10° SSW 19:03:02 27° W 19:07:19 10° NW visible
20 Nov 6.3 05:26:18 10° ENE 05:28:07 12° E 05:29:56 10° ESE visible
20 Nov 3.7 18:21:04 10° S 18:26:02 54° W 18:31:02 10° NNW visible
21 Nov 4.6 06:26:16 10° NNE 06:31:03 40° E 06:35:49 10° SSE visible
21 Nov 2.9 17:44:10 10° SSE 17:49:13 75° ENE 17:54:19 10° N visible
21 Nov 5.8 19:25:43 10° SW 19:28:49 16° W 19:31:58 10° NW visible
22 Nov 5.8 05:50:15 10° NE 05:53:58 20° E 05:57:39 10° SE visible
22 Nov 3.5 17:07:58 10° SE 17:12:36 37° ENE 17:17:16 10° N visible
22 Nov 4.7 18:47:08 10° SSW 18:51:40 33° W 18:56:15 10° NNW visible
23 Nov 3.3 18:09:41 10° S 18:14:44 67° WSW 18:19:49 10° NNW visible
24 Nov 5.0 06:15:08 10° NNE 06:19:43 33° E 06:24:15 10° SSE visible
24 Nov 3.0 17:32:59 10° SSE 17:37:58 61° ENE 17:43:00 10° N visible
24 Nov 5.5 19:13:43 10° SW 19:17:25 20° W 19:21:08 10° NW visible
25 Nov 6.0 05:39:26 10° NE 05:42:33 16° E 05:45:40 10° SE visible
25 Nov 3.7 16:57:00 10° SE 17:01:25 31° ENE 17:05:51 10° N visible
25 Nov 4.3 18:35:34 10° SSW 18:40:19 40° W 18:45:07 10° NNW visible
26 Nov 3.9 06:40:21 10° NNE 06:45:21 54° E 06:50:19 10° S visible
26 Nov 3.0 17:58:21 10° SSE 18:03:26 83° WSW 18:08:34 10° NNW visible
26 Nov 6.1 19:41:27 10° WSW 19:43:16 12° W 19:45:06 10° WNW visible
27 Nov 5.4 06:04:03 10° NE 06:08:21 27° E 06:12:36 10° SSE visible
27 Nov 3.2 17:21:52 10° SE 17:26:45 49° ENE 17:31:39 10° N visible
27 Nov 5.2 19:01:54 10° SSW 19:06:02 25° W 19:10:10 10° NW visible
28 Nov 6.2 05:28:51 10° ENE 05:31:07 13° E 05:33:24 10° ESE visible
28 Nov 3.9 16:46:06 10° ESE 16:50:14 26° ENE 16:54:23 10° N visible
28 Nov 3.9 18:24:04 10° S 18:28:59 50° W 18:33:57 10° NNW visible
